Other Surface Observations
Issued by NWS

Home | Current Version | Previous Version | Text Only | Print | Product List | Glossary On
Versions: 1 2 3 4 5 6 7 8 9 10 11 12 13 14 15 16 17 18 19 20 21 22 23 24 25 26 27 28 29 30 31 32 33 34 35 36 37 38 39 40 41 42 43 44 45 46 47 48 49 50
000
SXUS52 KTAE 241218
OSOTAE
OSOTAE
North Florida/South Alabama/Southwest Georgia Weather Roundup
National Weather Service Tallahassee Florida
700 AM EST SAT FEB 24 2018

Note: "fair" indicates few or no clouds below 12,000 feet with no
significant weather and/or obstructions to visibility.

!FLZ017-115-028-034-025-241300
...North Florida...

CITY           SKY/WX    TMP DP  RH WIND       PRES   REMARKS
TALLAHASSEE    FAIR      55  54  96 CALM      30.21R
APALACHICOLA   FAIR      63  63 100 SE3       30.20R
PERRY          CLOUDY    65  63  91 SE5       30.24R
CROSS CITY     FAIR      61 N/A N/A E3        30.29R
JACKSONVILLE   FAIR      60  59  96 CALM      30.25R
$$

!FLZ112-006-005-002-011-241300
...Florida Panhandle...

CITY           SKY/WX    TMP DP  RH WIND       PRES   REMARKS
MARIANNA       MOCLDY    62  61  96 CALM      30.20R
BONIFAY        NOT AVBL
PANAMA CITY NW FOG       60  59  96 CALM      30.19R VSB 3/4
TYNDALL AFB    MOCLDY    64  64 100 SE3       30.20R
TYND DRONE APT FAIR      63  63 100 CALM      30.20R
DE FUNIAK SPR  FOG       63  62  99 CALM      30.20S VSB 1/4
EGLIN AFB      CLOUDY    68  68 100 SE9       30.16S FOG
DESTIN         CLOUDY    71  67  87 SE6       30.17S
HURLBURT       PTCLDY    69  69  97 E6        30.15S
CRESTVIEW      FOG       64  63  96 CALM      30.19R VSB 1
PENSACOLA      CLOUDY    71  68  90 SE7       30.16R
$$

!ALZ063-066-241300
...South Alabama...

CITY           SKY/WX    TMP DP  RH WIND       PRES   REMARKS
DOTHAN         FAIR      59  58  96 SE6       30.23S FOG
OZARK CAIRNS   FOG       61  61 100 CALM      30.20S VSB 1/8
FT RUCKER HELI FOG       61  61 100 CALM      30.20R VSB 7/8
RUCKER HELI 3    N/A    N/A N/A N/A MISG        N/A
RUCKER HELI 2  MOCLDY    59  59 100 CALM      30.19S FOG
FLORALA APT    CLOUDY    64  62  93 SE3       30.20S FOG
ANDALUSIA      FOG       65  63  93 VRB3      30.18R VSB 1/4
TROY           CLOUDY    61  61 100 S5        30.19R FOG
EUFALA         FAIR      60  59  96 S5        30.20R
MOBILE         CLOUDY    71  68  90 S7        30.15R
$$

!GAZ120>161-241300
...Southwest and South Central Georgia...

CITY           SKY/WX    TMP DP  RH WIND       PRES   REMARKS
THOMASVILLE    FAIR     N/A N/A N/A S3        30.24R
BAINBRIDGE     FAIR      59  59 100 CALM      30.22R
MOODY AFB      FAIR      63  63 100 S7        30.22R
VALDOSTA       FAIR      62  62 100 S6        30.23R
MOULTRIE       FAIR      61  61 100 CALM      30.23R
BLAKELY        MOCLDY    59  55  88 CALM      30.22S FOG
ALBANY         FAIR      57  56  96 CALM      30.24R FOG
TIFTON         FAIR     N/A N/A N/A CALM      30.23R HAZE
FITZGERALD     FOG       58  58 100 CALM      30.26R VSB 1/2
CORDELE        FAIR      61  58  90 CALM      30.24S
AMERICUS       FAIR      55  52  88 CALM      30.24S FOG
HOMERVILLE     CLOUDY    63  63 100 S7        30.24R FOG
$$

!GMZ750-755-770-775-241300
...Coastal and Buoy Obs...

STATION/POSITION TIME  TEMP    WIND        PRES    VSBY  WAVE
                       AIR SEA DIR/SP/G                  HT/PER
                 (UTC) (F)     (DEG/KT/KT) (MB)    (MI)  (FT/S)
KEATON BEACH     1200   64     100/  7/  8 1023.9R
CEDAR KEY        1200   71     150/ 12/ 13 1024.1R
C TOWER          1200   68     130/  9/  9 1023.1R
APALACHICOLA BUO NOT AVBL
PANAMA CITY BUOY 1150   74 76  110/ 16/ 17 1021.2R         2/ 7
MOBILE BUOY      1200   70 66  150/  6/  8 1020.6
ORANGE BCH AL BU NOT AVBL
$$




USA.gov is the U.S. government's official web portal to all federal, state and local government web resources and services.